Location: Stoke Bliss
(52.2667°N, 2.5167°W)
Time: 14:31:53
(UTC+00:00)

Cosmos 2123 Rocket - Pass Details

Date: 03 March 2021
Orbit: 960 x 993 km, 82.9° (Epoch: 13 April)

Event Time Altitude Azimuth Distance (km) Brightness Sun altitude
Rises 20:51:52 0° 350° (N) 3,701 7.5 -27.4°
Reaches altitude 10° 20:54:26 10° 353° (N) 2,745 6.7 -27.7°
Enters shadow 21:00:15 65° 50° (NE) 1,069 4.0 -28.5°
